Back to catalog

STARLINK-34232

AliveCommunicationsVLEO
NORAD 65019·PAYLOAD·🇺🇸 United States

Launched Jul 30, 2025 from Cape Canaveral Space Force Station

Loading…

Next Passes (next 24 hours)

TLE

FreshSource: CelesTrak SupGP

Epoch: Sep 15, 2026, 02:24 UTC

1 65019C 25161E   26258.10048611  .00063670  00000+0  18827-2 0  2587
2 65019  53.1569 133.0915 0001260  83.2986  78.4922 15.34331836    19

Track STARLINK-34232 in real time with AllMySat

Download on the App Store